Time,TemperatureF,DewpointF,PressureIn,WindDirection,WindDirectionDegrees,WindSpeedMPH,WindSpeedGustMPH,Humidity,HourlyPrecipIn,Conditions,Clouds,dailyrainin,SoftwareType,DateUTC
2013-02-27 00:02:00,30.9,18.3,30.20,ESE,111,0.0,0.0,59,0.00,,,0.00,WeatherCatV1.12B45,2013-02-27 08:02:00,
2013-02-27 00:07:00,31.1,18.5,30.20,ESE,111,0.0,0.0,59,0.00,,,0.00,WeatherCatV1.12B45,2013-02-27 08:07:00,
2013-02-27 00:12:00,30.7,18.1,30.20,ESE,111,0.0,0.0,59,0.00,,,0.00,WeatherCatV1.12B45,2013-02-27 08:12:00,
2013-02-27 00:17:00,30.6,18.0,30.20,ESE,111,0.0,0.0,59,0.00,,,0.00,WeatherCatV1.12B45,2013-02-27 08:17:00,
2013-02-27 00:22:00,30.6,18.0,30.20,ESE,111,0.0,0.0,59,0.00,,,0.00,WeatherCatV1.12B45,2013-02-27 08:22:00,
2013-02-27 00:27:00,30.6,18.0,30.20,SW,229,0.0,0.0,59,0.00,,,0.00,WeatherCatV1.12B45,2013-02-27 08:27:00,
2013-02-27 00:32:00,30.6,18.0,30.20,SW,229,0.0,0.0,59,0.00,,,0.00,WeatherCatV1.12B45,2013-02-27 08:32:00,
2013-02-27 00:37:00,30.4,18.2,30.20,SW,229,0.0,0.0,60,0.00,,,0.00,WeatherCatV1.12B45,2013-02-27 08:37:00,
2013-02-27 00:42:00,30.0,17.8,30.20,SW,229,0.0,0.0,60,0.00,,,0.00,WeatherCatV1.12B45,2013-02-27 08:42:00,
2013-02-27 00:47:00,29.5,17.3,30.20,SW,229,0.0,0.0,60,0.00,,,0.00,WeatherCatV1.12B45,2013-02-27 08:47:00,
2013-02-27 00:52:00,29.5,17.7,30.20,SW,229,0.0,0.0,61,0.00,,,0.00,WeatherCatV1.12B45,2013-02-27 08:52:00,
2013-02-27 00:57:00,29.3,17.5,30.20,SW,229,0.0,0.0,61,0.00,,,0.00,WeatherCatV1.12B45,2013-02-27 08:57:00,
2013-02-27 01:02:00,29.3,17.9,30.20,SW,229,0.0,0.0,62,0.00,,,0.00,WeatherCatV1.12B45,2013-02-27 09:02:00,
2013-02-27 01:07:00,29.5,18.5,30.20,SW,229,0.0,0.0,63,0.00,,,0.00,WeatherCatV1.12B45,2013-02-27 09:07:00,
2013-02-27 01:12:00,29.5,18.5,30.20,SW,229,0.0,0.0,63,0.00,,,0.00,WeatherCatV1.12B45,2013-02-27 09:12:00,
2013-02-27 01:17:00,29.5,18.5,30.20,SW,229,0.0,0.0,63,0.00,,,0.00,WeatherCatV1.12B45,2013-02-27 09:17:00,
2013-02-27 01:22:00,29.8,18.8,30.20,SW,229,0.0,0.0,63,0.00,,,0.00,WeatherCatV1.12B45,2013-02-27 09:22:00,
2013-02-27 01:27:00,30.0,18.6,30.20,SW,229,0.0,0.0,62,0.00,,,0.00,WeatherCatV1.12B45,2013-02-27 09:27:00,
2013-02-27 01:32:00,30.0,18.6,30.20,SW,229,0.0,0.0,62,0.00,,,0.00,WeatherCatV1.12B45,2013-02-27 09:32:00,
2013-02-27 01:37:00,30.2,18.8,30.20,SW,229,0.0,0.0,62,0.00,,,0.00,WeatherCatV1.12B45,2013-02-27 09:37:00,
2013-02-27 01:42:00,30.4,18.6,30.20,SW,229,0.0,0.0,61,0.00,,,0.00,WeatherCatV1.12B45,2013-02-27 09:42:00,
2013-02-27 01:47:00,30.6,18.7,30.20,SW,229,0.0,0.0,61,0.00,,,0.00,WeatherCatV1.12B45,2013-02-27 09:47:00,
2013-02-27 01:52:00,30.6,18.7,30.20,SW,229,0.0,0.0,61,0.00,,,0.00,WeatherCatV1.12B45,2013-02-27 09:52:00,
2013-02-27 01:57:00,30.9,18.7,30.20,SW,229,0.0,0.0,60,0.00,,,0.00,WeatherCatV1.12B45,2013-02-27 09:57:00,
2013-02-27 02:02:00,30.9,18.7,30.20,SW,229,0.0,0.0,60,0.00,,,0.00,WeatherCatV1.12B45,2013-02-27 10:02:00,
2013-02-27 02:07:00,31.1,18.9,30.20,SW,229,0.0,0.0,60,0.00,,,0.00,WeatherCatV1.12B45,2013-02-27 10:07:00,
2013-02-27 02:12:00,31.1,18.5,30.20,SW,229,0.0,0.0,59,0.00,,,0.00,WeatherCatV1.12B45,2013-02-27 10:12:00,
2013-02-27 02:16:00,31.1,18.5,30.20,SW,229,0.0,0.0,59,0.00,,,0.00,WeatherCatV1.12B45,2013-02-27 10:16:00,
2013-02-27 02:21:00,31.1,18.5,30.20,SW,229,0.0,0.0,59,0.00,,,0.00,WeatherCatV1.12B45,2013-02-27 10:21:00,
2013-02-27 02:26:00,31.3,18.6,30.20,SW,229,0.0,0.0,59,0.00,,,0.00,WeatherCatV1.12B45,2013-02-27 10:26:00,
2013-02-27 02:31:00,31.3,18.2,30.20,SW,229,0.0,0.0,58,0.00,,,0.00,WeatherCatV1.12B45,2013-02-27 10:31:00,
2013-02-27 02:36:00,31.3,18.2,30.17,SW,229,0.0,0.0,58,0.00,,,0.00,WeatherCatV1.12B45,2013-02-27 10:36:00,
2013-02-27 02:41:00,31.3,18.2,30.17,SW,229,0.0,0.0,58,0.00,,,0.00,WeatherCatV1.12B45,2013-02-27 10:41:00,
2013-02-27 02:46:00,31.3,18.2,30.17,SW,229,0.0,0.0,58,0.00,,,0.00,WeatherCatV1.12B45,2013-02-27 10:46:00,
2013-02-27 02:51:00,31.3,18.2,30.17,SW,229,0.0,0.0,58,0.00,,,0.00,WeatherCatV1.12B45,2013-02-27 10:51:00,
2013-02-27 02:56:00,31.1,18.5,30.17,SW,229,0.0,0.0,59,0.00,,,0.00,WeatherCatV1.12B45,2013-02-27 10:56:00,
2013-02-27 03:01:00,30.7,18.1,30.17,SW,229,0.0,0.0,59,0.00,,,0.00,WeatherCatV1.12B45,2013-02-27 11:01:00,
2013-02-27 03:06:00,30.4,18.2,30.17,SW,229,0.0,0.0,60,0.00,,,0.00,WeatherCatV1.12B45,2013-02-27 11:06:00,
2013-02-27 03:11:00,30.2,18.4,30.17,SW,229,0.0,0.0,61,0.00,,,0.00,WeatherCatV1.12B45,2013-02-27 11:11:00,
2013-02-27 03:16:00,30.2,18.0,30.17,SW,229,0.0,0.0,60,0.00,,,0.00,WeatherCatV1.12B45,2013-02-27 11:16:00,
2013-02-27 03:21:00,30.2,18.4,30.17,SW,229,0.0,0.0,61,0.00,,,0.00,WeatherCatV1.12B45,2013-02-27 11:21:00,
2013-02-27 03:26:00,30.2,18.4,30.17,SW,229,0.0,0.0,61,0.00,,,0.00,WeatherCatV1.12B45,2013-02-27 11:26:00,
2013-02-27 03:31:00,30.0,18.2,30.17,SW,229,0.0,0.0,61,0.00,,,0.00,WeatherCatV1.12B45,2013-02-27 11:31:00,
2013-02-27 03:36:00,30.0,18.2,30.17,SW,229,0.0,0.0,61,0.00,,,0.00,WeatherCatV1.12B45,2013-02-27 11:36:00,
2013-02-27 03:41:00,30.0,18.2,30.17,SW,229,0.0,0.0,61,0.00,,,0.00,WeatherCatV1.12B45,2013-02-27 11:41:00,
2013-02-27 03:46:00,30.0,18.2,30.17,SW,229,0.0,0.0,61,0.00,,,0.00,WeatherCatV1.12B45,2013-02-27 11:46:00,
2013-02-27 03:51:00,29.8,18.1,30.17,SW,229,0.0,0.0,61,0.00,,,0.00,WeatherCatV1.12B45,2013-02-27 11:51:00,
2013-02-27 03:56:00,29.8,18.1,30.17,SW,229,0.0,0.0,61,0.00,,,0.00,WeatherCatV1.12B45,2013-02-27 11:56:00,
2013-02-27 04:01:00,29.8,18.1,30.17,SW,229,0.0,0.0,61,0.00,,,0.00,WeatherCatV1.12B45,2013-02-27 12:01:00,
2013-02-27 04:06:00,29.8,18.1,30.17,SW,229,0.0,0.0,61,0.00,,,0.00,WeatherCatV1.12B45,2013-02-27 12:06:00,
2013-02-27 04:11:00,30.0,18.6,30.17,SW,229,0.0,0.0,62,0.00,,,0.00,WeatherCatV1.12B45,2013-02-27 12:11:00,
2013-02-27 04:16:00,30.2,18.8,30.17,SW,229,0.0,0.0,62,0.00,,,0.00,WeatherCatV1.12B45,2013-02-27 12:16:00,
2013-02-27 04:21:00,30.2,18.8,30.17,SW,229,0.0,0.0,62,0.00,,,0.00,WeatherCatV1.12B45,2013-02-27 12:21:00,
2013-02-27 04:26:00,30.4,18.6,30.17,SW,229,0.0,0.0,61,0.00,,,0.00,WeatherCatV1.12B45,2013-02-27 12:26:00,
2013-02-27 04:31:00,30.4,18.6,30.17,SW,229,0.0,0.0,61,0.00,,,0.00,WeatherCatV1.12B45,2013-02-27 12:31:00,
2013-02-27 04:36:00,30.6,18.7,30.17,SW,229,0.0,0.0,61,0.00,,,0.00,WeatherCatV1.12B45,2013-02-27 12:36:00,
2013-02-27 04:41:00,30.6,18.3,30.17,SW,229,0.0,0.0,60,0.00,,,0.00,WeatherCatV1.12B45,2013-02-27 12:41:00,
2013-02-27 04:46:00,30.6,18.3,30.17,SW,229,0.0,0.0,60,0.00,,,0.00,WeatherCatV1.12B45,2013-02-27 12:46:00,
2013-02-27 04:51:00,30.4,18.2,30.17,SW,229,0.0,0.0,60,0.00,,,0.00,WeatherCatV1.12B45,2013-02-27 12:51:00,
2013-02-27 04:56:00,30.4,18.2,30.17,SW,229,0.0,0.0,60,0.00,,,0.00,WeatherCatV1.12B45,2013-02-27 12:56:00,
2013-02-27 05:01:00,30.6,18.3,30.17,SW,229,0.0,0.0,60,0.00,,,0.00,WeatherCatV1.12B45,2013-02-27 13:01:00,
2013-02-27 05:06:00,30.6,18.3,30.17,SW,229,0.0,0.0,60,0.00,,,0.00,WeatherCatV1.12B45,2013-02-27 13:06:00,
2013-02-27 05:11:00,30.6,18.0,30.17,SW,229,0.0,0.0,59,0.00,,,0.00,WeatherCatV1.12B45,2013-02-27 13:11:00,
2013-02-27 05:16:00,30.7,18.1,30.17,SW,229,0.0,0.0,59,0.00,,,0.00,WeatherCatV1.12B45,2013-02-27 13:16:00,
2013-02-27 05:21:00,30.9,18.3,30.17,SW,229,0.0,0.0,59,0.00,,,0.00,WeatherCatV1.12B45,2013-02-27 13:21:00,
2013-02-27 05:26:00,30.9,18.3,30.17,SW,229,0.0,0.0,59,0.00,,,0.00,WeatherCatV1.12B45,2013-02-27 13:26:00,
2013-02-27 05:31:00,30.7,18.1,30.17,SW,229,0.0,0.0,59,0.00,,,0.00,WeatherCatV1.12B45,2013-02-27 13:31:00,
2013-02-27 05:36:00,30.6,18.0,30.17,SW,229,0.0,0.0,59,0.00,,,0.00,WeatherCatV1.12B45,2013-02-27 13:36:00,
2013-02-27 05:41:00,30.2,18.0,30.17,SW,229,0.0,0.0,60,0.00,,,0.00,WeatherCatV1.12B45,2013-02-27 13:41:00,
2013-02-27 05:46:00,30.4,18.2,30.17,SW,229,0.0,0.0,60,0.00,,,0.00,WeatherCatV1.12B45,2013-02-27 13:46:00,
2013-02-27 05:51:00,30.6,18.7,30.17,SW,229,0.0,0.0,61,0.00,,,0.00,WeatherCatV1.12B45,2013-02-27 13:51:00,
2013-02-27 05:56:00,30.2,18.8,30.17,SW,229,0.0,0.0,62,0.00,,,0.00,WeatherCatV1.12B45,2013-02-27 13:56:00,
2013-02-27 06:01:00,30.2,18.8,30.17,SW,229,0.0,0.0,62,0.00,,,0.00,WeatherCatV1.12B45,2013-02-27 14:01:00,
2013-02-27 06:06:00,30.0,18.6,30.17,SW,229,0.0,0.0,62,0.00,,,0.00,WeatherCatV1.12B45,2013-02-27 14:06:00,
2013-02-27 06:11:00,29.8,19.2,30.17,SW,229,0.0,0.0,64,0.00,,,0.00,WeatherCatV1.12B45,2013-02-27 14:11:00,
2013-02-27 06:16:00,29.5,18.8,30.17,SW,229,0.0,0.0,64,0.00,,,0.00,WeatherCatV1.12B45,2013-02-27 14:16:00,
2013-02-27 06:21:00,29.5,18.8,30.17,SW,229,0.0,0.0,64,0.00,,,0.00,WeatherCatV1.12B45,2013-02-27 14:21:00,
2013-02-27 06:26:00,29.7,19.0,30.17,SW,229,0.0,0.0,64,0.00,,,0.00,WeatherCatV1.12B45,2013-02-27 14:26:00,
2013-02-27 06:31:00,29.1,18.1,30.17,SW,229,0.0,0.0,63,0.00,,,0.00,WeatherCatV1.12B45,2013-02-27 14:31:00,
2013-02-27 06:36:00,28.4,17.8,30.17,SW,229,0.0,0.0,64,0.00,,,0.00,WeatherCatV1.12B45,2013-02-27 14:36:00,
2013-02-27 06:41:00,28.2,18.0,30.17,SW,229,0.0,0.0,65,0.00,,,0.00,WeatherCatV1.12B45,2013-02-27 14:41:00,
2013-02-27 06:46:00,28.4,18.5,30.17,SW,229,0.0,0.0,66,0.00,,,0.00,WeatherCatV1.12B45,2013-02-27 14:46:00,
2013-02-27 06:51:00,28.4,18.5,30.17,SW,229,0.0,0.0,66,0.00,,,0.00,WeatherCatV1.12B45,2013-02-27 14:51:00,
2013-02-27 06:56:00,28.2,18.3,30.17,SW,229,0.0,0.0,66,0.00,,,0.00,WeatherCatV1.12B45,2013-02-27 14:56:00,
2013-02-27 07:01:00,28.2,18.7,30.17,SW,229,0.0,0.0,67,0.00,,,0.00,WeatherCatV1.12B45,2013-02-27 15:01:00,
2013-02-27 07:06:00,28.2,18.7,30.17,SW,229,0.0,0.0,67,0.00,,,0.00,WeatherCatV1.12B45,2013-02-27 15:06:00,
2013-02-27 07:11:00,28.4,19.2,30.17,SW,229,0.0,0.0,68,0.00,,,0.00,WeatherCatV1.12B45,2013-02-27 15:11:00,
2013-02-27 07:16:00,28.4,19.2,30.17,SW,229,0.0,0.0,68,0.00,,,0.00,WeatherCatV1.12B45,2013-02-27 15:16:00,
2013-02-27 07:21:00,28.2,18.7,30.20,SW,229,0.0,0.0,67,0.00,,,0.00,WeatherCatV1.12B45,2013-02-27 15:21:00,
2013-02-27 07:26:00,28.2,19.0,30.20,SW,229,0.0,0.0,68,0.00,,,0.00,WeatherCatV1.12B45,2013-02-27 15:26:00,
2013-02-27 07:31:00,28.4,19.5,30.20,SW,229,0.0,0.0,69,0.00,,,0.00,WeatherCatV1.12B45,2013-02-27 15:31:00,
2013-02-27 07:36:00,28.8,19.9,30.20,SW,229,0.0,0.0,69,0.00,,,0.00,WeatherCatV1.12B45,2013-02-27 15:36:00,
2013-02-27 07:41:00,30.0,21.4,30.20,SW,229,0.0,0.0,70,0.00,,,0.00,WeatherCatV1.12B45,2013-02-27 15:41:00,
2013-02-27 07:46:00,31.1,22.1,30.20,SW,229,0.0,0.0,69,0.00,,,0.00,WeatherCatV1.12B45,2013-02-27 15:46:00,
2013-02-27 07:52:00,31.3,19.4,30.20,SW,229,0.0,0.0,61,0.00,,,0.00,WeatherCatV1.12B45,2013-02-27 15:52:00,
2013-02-27 07:57:00,32.0,19.3,30.20,SW,229,0.0,0.0,59,0.00,,,0.00,WeatherCatV1.12B45,2013-02-27 15:57:00,
2013-02-27 08:02:00,32.2,19.1,30.20,SW,229,0.0,0.0,58,0.00,,,0.00,WeatherCatV1.12B45,2013-02-27 16:02:00,
2013-02-27 08:07:00,32.2,18.7,30.20,SW,229,0.0,0.0,57,0.00,,,0.00,WeatherCatV1.12B45,2013-02-27 16:07:00,
2013-02-27 08:12:00,31.6,17.8,30.20,SW,229,0.0,0.0,56,0.00,,,0.00,WeatherCatV1.12B45,2013-02-27 16:12:00,
2013-02-27 08:17:00,31.3,17.4,30.20,SW,229,0.0,0.0,56,0.00,,,0.00,WeatherCatV1.12B45,2013-02-27 16:17:00,
2013-02-27 08:22:00,30.9,17.5,30.20,SW,229,0.0,0.0,57,0.00,,,0.00,WeatherCatV1.12B45,2013-02-27 16:22:00,
2013-02-27 08:27:00,30.7,17.3,30.20,SW,229,0.0,0.0,57,0.00,,,0.00,WeatherCatV1.12B45,2013-02-27 16:27:00,
2013-02-27 08:32:00,30.9,17.9,30.20,SW,229,0.0,0.0,58,0.00,,,0.00,WeatherCatV1.12B45,2013-02-27 16:32:00,
2013-02-27 08:37:00,31.1,18.1,30.23,SW,229,0.0,0.0,58,0.00,,,0.00,WeatherCatV1.12B45,2013-02-27 16:37:00,
2013-02-27 08:42:00,31.5,18.8,30.23,SW,229,0.0,0.0,59,0.00,,,0.00,WeatherCatV1.12B45,2013-02-27 16:42:00,
2013-02-27 08:47:00,32.5,19.8,30.23,SW,229,0.0,0.0,59,0.00,,,0.00,WeatherCatV1.12B45,2013-02-27 16:47:00,
2013-02-27 08:52:00,33.4,20.3,30.23,SW,229,0.0,0.0,58,0.00,,,0.00,WeatherCatV1.12B45,2013-02-27 16:52:00,
2013-02-27 08:57:00,34.2,19.3,30.23,SW,229,0.0,2.7,54,0.00,,,0.00,WeatherCatV1.12B45,2013-02-27 16:57:00,
2013-02-27 09:02:00,34.5,19.2,30.23,SW,229,0.0,0.0,53,0.00,,,0.00,WeatherCatV1.12B45,2013-02-27 17:02:00,
2013-02-27 09:07:00,34.7,18.9,30.23,SW,229,0.0,0.0,52,0.00,,,0.00,WeatherCatV1.12B45,2013-02-27 17:07:00,
2013-02-27 09:12:00,34.9,18.6,30.23,SW,229,0.0,3.6,51,0.00,,,0.00,WeatherCatV1.12B45,2013-02-27 17:12:00,
2013-02-27 09:17:00,35.1,18.8,30.23,SW,229,0.0,0.0,51,0.00,,,0.00,WeatherCatV1.12B45,2013-02-27 17:17:00,
2013-02-27 09:22:00,35.2,18.9,30.23,SW,229,0.0,0.0,51,0.00,,,0.00,WeatherCatV1.12B45,2013-02-27 17:22:00,
2013-02-27 09:27:00,35.4,19.1,30.23,SW,229,0.0,0.0,51,0.00,,,0.00,WeatherCatV1.12B45,2013-02-27 17:27:00,
2013-02-27 09:32:00,36.1,19.3,30.23,NNW,346,0.0,2.7,50,0.00,,,0.00,WeatherCatV1.12B45,2013-02-27 17:32:00,
2013-02-27 09:37:00,37.9,19.5,30.23,NNW,346,0.0,0.0,47,0.00,,,0.00,WeatherCatV1.12B45,2013-02-27 17:37:00,
2013-02-27 09:42:00,38.7,19.7,30.23,NE,42,3.1,3.1,46,0.00,,,0.00,WeatherCatV1.12B45,2013-02-27 17:42:00,
2013-02-27 09:47:00,38.7,19.7,30.23,NE,42,0.0,2.7,46,0.00,,,0.00,WeatherCatV1.12B45,2013-02-27 17:47:00,
2013-02-27 09:52:00,38.8,19.3,30.23,NNE,25,0.0,0.0,45,0.00,,,0.00,WeatherCatV1.12B45,2013-02-27 17:52:00,
2013-02-27 09:57:00,38.3,18.8,30.23,NE,51,3.6,5.4,45,0.00,,,0.00,WeatherCatV1.12B45,2013-02-27 17:57:00,
2013-02-27 10:02:00,38.5,18.5,30.23,ENE,58,3.1,3.6,44,0.00,,,0.00,WeatherCatV1.12B45,2013-02-27 18:02:00,
2013-02-27 10:07:00,38.5,19.0,30.20,NE,35,0.0,4.9,45,0.00,,,0.00,WeatherCatV1.12B45,2013-02-27 18:07:00,
2013-02-27 10:12:00,38.5,19.0,30.20,NE,36,2.7,2.7,45,0.00,,,0.00,WeatherCatV1.12B45,2013-02-27 18:12:00,
2013-02-27 10:17:00,38.5,18.0,30.20,WSW,241,4.0,5.4,43,0.00,,,0.00,WeatherCatV1.12B45,2013-02-27 18:17:00,
2013-02-27 10:22:00,38.8,17.7,30.23,SSW,196,6.3,7.6,42,0.00,,,0.00,WeatherCatV1.12B45,2013-02-27 18:22:00,
2013-02-27 10:27:00,39.0,17.3,30.23,SW,229,2.7,2.7,41,0.00,,,0.00,WeatherCatV1.12B45,2013-02-27 18:27:00,
2013-02-27 10:32:00,39.4,17.7,30.23,West,274,4.0,4.0,41,0.00,,,0.00,WeatherCatV1.12B45,2013-02-27 18:32:00,
2013-02-27 10:37:00,39.9,18.1,30.23,WSW,243,2.7,6.3,41,0.00,,,0.00,WeatherCatV1.12B45,2013-02-27 18:37:00,
2013-02-27 10:42:00,39.4,17.1,30.23,WSW,255,0.0,2.2,40,0.00,,,0.00,WeatherCatV1.12B45,2013-02-27 18:42:00,
2013-02-27 10:47:00,39.4,17.1,30.23,North,1,0.0,0.0,40,0.00,,,0.00,WeatherCatV1.12B45,2013-02-27 18:47:00,
2013-02-27 10:52:00,39.7,17.4,30.23,NNW,348,0.0,0.0,40,0.00,,,0.00,WeatherCatV1.12B45,2013-02-27 18:52:00,
2013-02-27 10:57:00,40.6,18.2,30.23,NW,323,0.0,5.8,40,0.00,,,0.00,WeatherCatV1.12B45,2013-02-27 18:57:00,
2013-02-27 11:02:00,40.8,18.4,30.23,East,85,3.1,5.4,40,0.00,,,0.00,WeatherCatV1.12B45,2013-02-27 19:02:00,
2013-02-27 11:07:00,41.0,18.0,30.23,South,185,5.4,8.3,39,0.00,,,0.00,WeatherCatV1.12B45,2013-02-27 19:07:00,
2013-02-27 11:12:00,41.9,18.8,30.23,WNW,283,6.3,8.1,39,0.00,,,0.00,WeatherCatV1.12B45,2013-02-27 19:12:00,
2013-02-27 11:17:00,43.0,19.7,30.23,South,187,4.0,5.4,39,0.00,,,0.00,WeatherCatV1.12B45,2013-02-27 19:17:00,
2013-02-27 11:22:00,44.1,20.1,30.23,South,183,6.3,6.3,38,0.00,,,0.00,WeatherCatV1.12B45,2013-02-27 19:22:00,
2013-02-27 11:27:00,44.8,20.1,30.23,South,186,0.0,0.0,37,0.00,,,0.00,WeatherCatV1.12B45,2013-02-27 19:27:00,
2013-02-27 11:32:00,45.1,20.4,30.23,SSE,150,4.9,8.1,37,0.00,,,0.00,WeatherCatV1.12B45,2013-02-27 19:32:00,
2013-02-27 11:37:00,45.5,20.8,30.23,South,189,4.9,6.3,37,0.00,,,0.00,WeatherCatV1.12B45,2013-02-27 19:37:00,
2013-02-27 11:42:00,45.5,19.5,30.23,SSE,167,5.8,6.3,35,0.00,,,0.00,WeatherCatV1.12B45,2013-02-27 19:42:00,
2013-02-27 11:47:00,46.0,20.6,30.23,SE,127,7.6,7.6,36,0.00,,,0.00,WeatherCatV1.12B45,2013-02-27 19:47:00,
2013-02-27 11:52:00,46.2,20.1,30.23,East,101,7.6,7.6,35,0.00,,,0.00,WeatherCatV1.12B45,2013-02-27 19:52:00,
2013-02-27 11:57:00,45.9,18.4,30.23,SW,219,3.6,3.6,33,0.00,,,0.00,WeatherCatV1.12B45,2013-02-27 19:57:00,
2013-02-27 12:02:00,44.8,16.7,30.23,SSW,200,0.0,3.6,32,0.00,,,0.00,WeatherCatV1.12B45,2013-02-27 20:02:00,
2013-02-27 12:07:00,43.5,17.0,30.23,West,262,4.0,4.0,34,0.00,,,0.00,WeatherCatV1.12B45,2013-02-27 20:07:00,
2013-02-27 12:12:00,42.8,16.4,30.23,West,263,4.0,6.3,34,0.00,,,0.00,WeatherCatV1.12B45,2013-02-27 20:12:00,
2013-02-27 12:17:00,43.5,17.7,30.23,West,280,5.4,7.6,35,0.00,,,0.00,WeatherCatV1.12B45,2013-02-27 20:17:00,
2013-02-27 12:22:00,44.1,17.5,30.23,SW,226,0.0,5.4,34,0.00,,,0.00,WeatherCatV1.12B45,2013-02-27 20:22:00,
2013-02-27 12:27:00,44.8,18.1,30.23,WSW,251,2.2,7.6,34,0.00,,,0.00,WeatherCatV1.12B45,2013-02-27 20:27:00,
2013-02-27 12:32:00,45.3,18.6,30.23,SW,222,3.1,4.0,34,0.00,,,0.00,WeatherCatV1.12B45,2013-02-27 20:32:00,
2013-02-27 12:37:00,45.1,17.8,30.20,South,177,4.0,8.7,33,0.00,,,0.00,WeatherCatV1.12B45,2013-02-27 20:37:00,
2013-02-27 12:42:00,45.0,16.9,30.20,West,270,5.4,7.2,32,0.00,,,0.00,WeatherCatV1.12B45,2013-02-27 20:42:00,
2013-02-27 12:47:00,45.0,16.9,30.20,SSW,200,5.8,5.8,32,0.00,,,0.00,WeatherCatV1.12B45,2013-02-27 20:47:00,
2013-02-27 12:52:00,45.3,16.5,30.23,SSW,207,5.8,8.1,31,0.00,,,0.00,WeatherCatV1.12B45,2013-02-27 20:52:00,
2013-02-27 12:57:00,45.7,16.8,30.23,SW,232,5.8,5.8,31,0.00,,,0.00,WeatherCatV1.12B45,2013-02-27 20:57:00,
2013-02-27 13:02:00,45.3,16.5,30.23,North,0,2.7,3.6,31,0.00,,,0.00,WeatherCatV1.12B45,2013-02-27 21:02:00,
2013-02-27 13:07:00,45.3,16.5,30.20,WSW,248,4.0,4.9,31,0.00,,,0.00,WeatherCatV1.12B45,2013-02-27 21:07:00,
2013-02-27 13:12:00,45.5,16.6,30.20,West,278,5.4,6.3,31,0.00,,,0.00,WeatherCatV1.12B45,2013-02-27 21:12:00,
2013-02-27 13:17:00,45.5,16.6,30.20,SW,220,2.7,5.8,31,0.00,,,0.00,WeatherCatV1.12B45,2013-02-27 21:17:00,
2013-02-27 13:22:00,45.3,15.7,30.23,West,276,3.6,4.9,30,0.00,,,0.00,WeatherCatV1.12B45,2013-02-27 21:22:00,
2013-02-27 13:27:00,45.5,15.9,30.23,West,281,3.6,5.4,30,0.00,,,0.00,WeatherCatV1.12B45,2013-02-27 21:27:00,
2013-02-27 13:32:00,45.9,16.2,30.23,WSW,248,3.6,4.0,30,0.00,,,0.00,WeatherCatV1.12B45,2013-02-27 21:32:00,
2013-02-27 13:37:00,46.2,16.5,30.20,South,172,4.5,4.5,30,0.00,,,0.00,WeatherCatV1.12B45,2013-02-27 21:37:00,
2013-02-27 13:42:00,46.2,16.5,30.20,SSE,149,0.0,4.0,30,0.00,,,0.00,WeatherCatV1.12B45,2013-02-27 21:42:00,
2013-02-27 13:47:00,46.2,16.5,30.20,West,280,2.7,5.8,30,0.00,,,0.00,WeatherCatV1.12B45,2013-02-27 21:47:00,
2013-02-27 13:52:00,46.2,16.5,30.23,SSW,197,4.5,5.8,30,0.00,,,0.00,WeatherCatV1.12B45,2013-02-27 21:52:00,
2013-02-27 13:57:00,46.0,16.4,30.23,West,268,5.4,5.4,30,0.00,,,0.00,WeatherCatV1.12B45,2013-02-27 21:57:00,
2013-02-27 14:02:00,45.5,15.9,30.23,South,169,0.0,3.6,30,0.00,,,0.00,WeatherCatV1.12B45,2013-02-27 22:02:00,
2013-02-27 14:07:00,45.5,15.1,30.23,NE,45,2.7,4.0,29,0.00,,,0.00,WeatherCatV1.12B45,2013-02-27 22:07:00,
2013-02-27 14:12:00,45.5,14.3,30.23,SSW,213,3.6,5.4,28,0.00,,,0.00,WeatherCatV1.12B45,2013-02-27 22:12:00,
2013-02-27 14:17:00,45.5,15.1,30.23,WSW,252,3.6,5.4,29,0.00,,,0.00,WeatherCatV1.12B45,2013-02-27 22:17:00,
2013-02-27 14:22:00,45.7,15.3,30.23,WSW,258,4.0,4.9,29,0.00,,,0.00,WeatherCatV1.12B45,2013-02-27 22:22:00,
2013-02-27 14:27:00,45.9,15.4,30.23,WSW,258,2.7,3.6,29,0.00,,,0.00,WeatherCatV1.12B45,2013-02-27 22:27:00,
2013-02-27 14:32:00,45.9,15.4,30.23,NNW,328,3.1,3.6,29,0.00,,,0.00,WeatherCatV1.12B45,2013-02-27 22:32:00,
2013-02-27 14:37:00,45.5,15.1,30.23,NNE,28,0.0,4.5,29,0.00,,,0.00,WeatherCatV1.12B45,2013-02-27 22:37:00,
2013-02-27 14:42:00,45.5,15.1,30.23,NW,318,0.0,4.0,29,0.00,,,0.00,WeatherCatV1.12B45,2013-02-27 22:42:00,
2013-02-27 14:47:00,45.1,14.8,30.23,South,170,0.0,2.2,29,0.00,,,0.00,WeatherCatV1.12B45,2013-02-27 22:47:00,
2013-02-27 14:52:00,45.3,15.0,30.23,SW,232,3.1,4.0,29,0.00,,,0.00,WeatherCatV1.12B45,2013-02-27 22:52:00,
2013-02-27 14:57:00,45.9,15.4,30.23,SW,229,8.3,9.2,29,0.00,,,0.00,WeatherCatV1.12B45,2013-02-27 22:57:00,
2013-02-27 15:02:00,45.7,15.3,30.23,SSW,198,0.0,4.9,29,0.00,,,0.00,WeatherCatV1.12B45,2013-02-27 23:02:00,
2013-02-27 15:07:00,44.8,14.5,30.23,SSW,196,0.0,5.4,29,0.00,,,0.00,WeatherCatV1.12B45,2013-02-27 23:07:00,
2013-02-27 15:12:00,43.9,14.5,30.23,South,172,4.9,6.3,30,0.00,,,0.00,WeatherCatV1.12B45,2013-02-27 23:12:00,
2013-02-27 15:17:00,43.2,13.9,30.23,WSW,252,2.7,2.7,30,0.00,,,0.00,WeatherCatV1.12B45,2013-02-27 23:17:00,
2013-02-27 15:22:00,42.8,13.5,30.23,SSW,203,4.0,4.0,30,0.00,,,0.00,WeatherCatV1.12B45,2013-02-27 23:22:00,
2013-02-27 15:27:00,42.6,14.1,30.23,SW,221,0.0,0.0,31,0.00,,,0.00,WeatherCatV1.12B45,2013-02-27 23:27:00,
2013-02-27 15:32:00,42.8,13.5,30.23,WSW,251,0.0,2.7,30,0.00,,,0.00,WeatherCatV1.12B45,2013-02-27 23:32:00,
2013-02-27 15:37:00,42.8,13.5,30.20,WSW,251,0.0,0.0,30,0.00,,,0.00,WeatherCatV1.12B45,2013-02-27 23:37:00,
2013-02-27 15:42:00,42.6,14.1,30.20,SW,230,3.6,3.6,31,0.00,,,0.00,WeatherCatV1.12B45,2013-02-27 23:42:00,
2013-02-27 15:47:00,42.8,14.3,30.20,South,185,3.1,3.6,31,0.00,,,0.00,WeatherCatV1.12B45,2013-02-27 23:47:00,
2013-02-27 15:52:00,43.0,14.4,30.20,South,174,0.0,3.1,31,0.00,,,0.00,WeatherCatV1.12B45,2013-02-27 23:52:00,
2013-02-27 15:57:00,43.0,14.4,30.20,South,174,0.0,0.0,31,0.00,,,0.00,WeatherCatV1.12B45,2013-02-27 23:57:00,
2013-02-27 16:02:00,43.2,14.6,30.20,South,169,3.1,4.0,31,0.00,,,0.00,WeatherCatV1.12B45,2013-02-28 00:02:00,
2013-02-27 16:07:00,43.3,14.8,30.20,SE,142,0.0,0.0,31,0.00,,,0.00,WeatherCatV1.12B45,2013-02-28 00:07:00,
2013-02-27 16:12:00,43.3,14.8,30.20,West,263,2.7,3.1,31,0.00,,,0.00,WeatherCatV1.12B45,2013-02-28 00:12:00,
2013-02-27 16:17:00,43.3,14.8,30.20,South,188,0.0,3.6,31,0.00,,,0.00,WeatherCatV1.12B45,2013-02-28 00:17:00,
2013-02-27 16:22:00,43.2,14.6,30.23,South,188,0.0,0.0,31,0.00,,,0.00,WeatherCatV1.12B45,2013-02-28 00:22:00,
2013-02-27 16:27:00,43.0,14.4,30.23,SSE,167,2.7,2.7,31,0.00,,,0.00,WeatherCatV1.12B45,2013-02-28 00:27:00,
2013-02-27 16:32:00,42.8,14.3,30.23,SSW,203,2.7,4.0,31,0.00,,,0.00,WeatherCatV1.12B45,2013-02-28 00:32:00,
2013-02-27 16:37:00,42.6,14.1,30.23,SSE,162,3.6,3.6,31,0.00,,,0.00,WeatherCatV1.12B45,2013-02-28 00:37:00,
2013-02-27 16:42:00,42.4,14.0,30.23,SSE,162,0.0,0.0,31,0.00,,,0.00,WeatherCatV1.12B45,2013-02-28 00:42:00,
2013-02-27 16:47:00,42.1,13.7,30.23,SSE,162,0.0,0.0,31,0.00,,,0.00,WeatherCatV1.12B45,2013-02-28 00:47:00,
2013-02-27 16:52:00,42.1,13.7,30.23,SSE,162,0.0,0.0,31,0.00,,,0.00,WeatherCatV1.12B45,2013-02-28 00:52:00,
2013-02-27 16:57:00,41.9,13.5,30.23,SW,221,2.7,3.1,31,0.00,,,0.00,WeatherCatV1.12B45,2013-02-28 00:57:00,
2013-02-27 17:03:00,41.5,13.9,30.23,SW,221,0.0,0.0,32,0.00,,,0.00,WeatherCatV1.12B45,2013-02-28 01:03:00,
2013-02-27 17:08:00,41.0,13.4,30.23,SW,221,0.0,0.0,32,0.00,,,0.00,WeatherCatV1.12B45,2013-02-28 01:08:00,
2013-02-27 17:13:00,40.3,14.2,30.23,SW,221,0.0,0.0,34,0.00,,,0.00,WeatherCatV1.12B45,2013-02-28 01:13:00,
2013-02-27 17:18:00,39.4,14.0,30.23,SW,221,0.0,0.0,35,0.00,,,0.00,WeatherCatV1.12B45,2013-02-28 01:18:00,
2013-02-27 17:23:00,38.8,15.4,30.23,SW,221,0.0,0.0,38,0.00,,,0.00,WeatherCatV1.12B45,2013-02-28 01:23:00,
2013-02-27 17:28:00,38.1,15.4,30.23,SW,221,0.0,0.0,39,0.00,,,0.00,WeatherCatV1.12B45,2013-02-28 01:28:00,
2013-02-27 17:33:00,37.6,15.5,30.23,SW,221,0.0,0.0,40,0.00,,,0.00,WeatherCatV1.12B45,2013-02-28 01:33:00,
2013-02-27 17:38:00,37.2,15.7,30.23,SW,221,0.0,0.0,41,0.00,,,0.00,WeatherCatV1.12B45,2013-02-28 01:38:00,
2013-02-27 17:43:00,36.9,15.4,30.23,SW,221,0.0,0.0,41,0.00,,,0.00,WeatherCatV1.12B45,2013-02-28 01:43:00,
2013-02-27 17:48:00,36.7,15.2,30.23,SW,221,0.0,0.0,41,0.00,,,0.00,WeatherCatV1.12B45,2013-02-28 01:48:00,
2013-02-27 17:53:00,36.3,15.4,30.23,SW,221,0.0,0.0,42,0.00,,,0.00,WeatherCatV1.12B45,2013-02-28 01:53:00,
2013-02-27 17:58:00,36.0,15.7,30.23,SW,221,0.0,0.0,43,0.00,,,0.00,WeatherCatV1.12B45,2013-02-28 01:58:00,
2013-02-27 18:03:00,35.8,15.5,30.23,SW,221,0.0,0.0,43,0.00,,,0.00,WeatherCatV1.12B45,2013-02-28 02:03:00,
2013-02-27 18:08:00,35.8,15.5,30.23,SW,221,0.0,0.0,43,0.00,,,0.00,WeatherCatV1.12B45,2013-02-28 02:08:00,
2013-02-27 18:13:00,35.6,15.3,30.23,SW,221,0.0,0.0,43,0.00,,,0.00,WeatherCatV1.12B45,2013-02-28 02:13:00,
2013-02-27 18:18:00,35.6,15.3,30.23,SW,221,0.0,0.0,43,0.00,,,0.00,WeatherCatV1.12B45,2013-02-28 02:18:00,
2013-02-27 18:23:00,35.6,15.3,30.23,SW,221,0.0,0.0,43,0.00,,,0.00,WeatherCatV1.12B45,2013-02-28 02:23:00,
2013-02-27 18:28:00,35.4,15.7,30.23,SW,221,0.0,0.0,44,0.00,,,0.00,WeatherCatV1.12B45,2013-02-28 02:28:00,
2013-02-27 18:33:00,35.4,15.7,30.23,SW,221,0.0,0.0,44,0.00,,,0.00,WeatherCatV1.12B45,2013-02-28 02:33:00,
2013-02-27 18:38:00,35.4,15.7,30.23,SW,221,0.0,0.0,44,0.00,,,0.00,WeatherCatV1.12B45,2013-02-28 02:38:00,
2013-02-27 18:43:00,35.4,16.2,30.23,SW,221,0.0,0.0,45,0.00,,,0.00,WeatherCatV1.12B45,2013-02-28 02:43:00,
2013-02-27 18:48:00,35.2,16.0,30.23,SW,221,0.0,0.0,45,0.00,,,0.00,WeatherCatV1.12B45,2013-02-28 02:48:00,
2013-02-27 18:53:00,35.4,16.2,30.23,SW,221,0.0,0.0,45,0.00,,,0.00,WeatherCatV1.12B45,2013-02-28 02:53:00,
2013-02-27 18:58:00,35.4,16.2,30.23,SW,221,0.0,0.0,45,0.00,,,0.00,WeatherCatV1.12B45,2013-02-28 02:58:00,
2013-02-27 19:03:00,35.4,16.2,30.23,SW,221,0.0,0.0,45,0.00,,,0.00,WeatherCatV1.12B45,2013-02-28 03:03:00,
2013-02-27 19:08:00,35.4,16.2,30.20,SW,221,0.0,0.0,45,0.00,,,0.00,WeatherCatV1.12B45,2013-02-28 03:08:00,
2013-02-27 19:13:00,35.4,16.2,30.20,SW,221,0.0,0.0,45,0.00,,,0.00,WeatherCatV1.12B45,2013-02-28 03:13:00,
2013-02-27 19:18:00,35.6,15.9,30.20,SW,221,0.0,0.0,44,0.00,,,0.00,WeatherCatV1.12B45,2013-02-28 03:18:00,
2013-02-27 19:23:00,35.6,16.4,30.23,SW,221,0.0,0.0,45,0.00,,,0.00,WeatherCatV1.12B45,2013-02-28 03:23:00,
2013-02-27 19:28:00,35.6,16.4,30.23,SW,221,0.0,0.0,45,0.00,,,0.00,WeatherCatV1.12B45,2013-02-28 03:28:00,
2013-02-27 19:33:00,35.6,15.9,30.23,SW,221,0.0,0.0,44,0.00,,,0.00,WeatherCatV1.12B45,2013-02-28 03:33:00,
2013-02-27 19:38:00,35.6,15.9,30.20,SW,221,0.0,0.0,44,0.00,,,0.00,WeatherCatV1.12B45,2013-02-28 03:38:00,
2013-02-27 19:43:00,35.8,16.0,30.20,SW,221,0.0,0.0,44,0.00,,,0.00,WeatherCatV1.12B45,2013-02-28 03:43:00,
2013-02-27 19:48:00,36.0,15.7,30.20,SW,221,0.0,0.0,43,0.00,,,0.00,WeatherCatV1.12B45,2013-02-28 03:48:00,
2013-02-27 19:53:00,36.1,15.8,30.20,SW,221,0.0,0.0,43,0.00,,,0.00,WeatherCatV1.12B45,2013-02-28 03:53:00,
2013-02-27 19:58:00,36.1,15.8,30.20,SW,221,0.0,0.0,43,0.00,,,0.00,WeatherCatV1.12B45,2013-02-28 03:58:00,
2013-02-27 20:03:00,36.0,15.7,30.20,SW,221,0.0,0.0,43,0.00,,,0.00,WeatherCatV1.12B45,2013-02-28 04:03:00,
2013-02-27 20:08:00,36.0,15.7,30.23,SW,221,0.0,0.0,43,0.00,,,0.00,WeatherCatV1.12B45,2013-02-28 04:08:00,
2013-02-27 20:13:00,35.8,15.5,30.23,SW,221,0.0,0.0,43,0.00,,,0.00,WeatherCatV1.12B45,2013-02-28 04:13:00,
2013-02-27 20:18:00,35.8,15.5,30.23,SW,221,0.0,0.0,43,0.00,,,0.00,WeatherCatV1.12B45,2013-02-28 04:18:00,
2013-02-27 20:23:00,35.6,15.9,30.23,SW,221,0.0,0.0,44,0.00,,,0.00,WeatherCatV1.12B45,2013-02-28 04:23:00,
2013-02-27 20:28:00,35.6,15.9,30.23,SW,221,0.0,0.0,44,0.00,,,0.00,WeatherCatV1.12B45,2013-02-28 04:28:00,
2013-02-27 20:33:00,35.6,15.9,30.23,SW,221,0.0,0.0,44,0.00,,,0.00,WeatherCatV1.12B45,2013-02-28 04:33:00,
2013-02-27 20:38:00,35.6,15.9,30.20,SW,221,0.0,0.0,44,0.00,,,0.00,WeatherCatV1.12B45,2013-02-28 04:38:00,
2013-02-27 20:43:00,35.6,16.4,30.20,SW,221,0.0,0.0,45,0.00,,,0.00,WeatherCatV1.12B45,2013-02-28 04:43:00,
2013-02-27 20:48:00,35.6,16.4,30.20,SW,221,0.0,0.0,45,0.00,,,0.00,WeatherCatV1.12B45,2013-02-28 04:48:00,
2013-02-27 20:53:00,35.4,16.2,30.23,SW,221,0.0,0.0,45,0.00,,,0.00,WeatherCatV1.12B45,2013-02-28 04:53:00,
2013-02-27 20:58:00,35.4,16.2,30.23,SW,221,0.0,0.0,45,0.00,,,0.00,WeatherCatV1.12B45,2013-02-28 04:58:00,
2013-02-27 21:00:00,35.4,16.2,30.23,SW,221,0.0,0.0,45,0.00,,,0.00,WeatherCatV1.12B45,2013-02-28 05:00:00,
2013-02-27 21:05:00,35.2,16.6,30.23,SW,221,0.0,0.0,46,0.00,,,0.00,WeatherCatV1.12B45,2013-02-28 05:05:00,
2013-02-27 21:10:00,35.1,16.9,30.20,SW,221,0.0,0.0,47,0.00,,,0.00,WeatherCatV1.12B45,2013-02-28 05:10:00,
2013-02-27 21:15:00,35.1,16.9,30.20,SW,221,0.0,0.0,47,0.00,,,0.00,WeatherCatV1.12B45,2013-02-28 05:15:00,
2013-02-27 21:20:00,35.1,16.9,30.20,SW,221,0.0,0.0,47,0.00,,,0.00,WeatherCatV1.12B45,2013-02-28 05:20:00,
2013-02-27 21:25:00,35.2,16.6,30.20,SW,221,0.0,0.0,46,0.00,,,0.00,WeatherCatV1.12B45,2013-02-28 05:25:00,
2013-02-27 21:30:00,35.4,16.2,30.20,SW,221,0.0,0.0,45,0.00,,,0.00,WeatherCatV1.12B45,2013-02-28 05:30:00,
2013-02-27 21:35:00,35.6,16.4,30.20,SW,221,0.0,0.0,45,0.00,,,0.00,WeatherCatV1.12B45,2013-02-28 05:35:00,
2013-02-27 21:40:00,35.4,16.2,30.20,SW,221,0.0,0.0,45,0.00,,,0.00,WeatherCatV1.12B45,2013-02-28 05:40:00,
2013-02-27 21:45:00,35.4,16.2,30.20,SW,221,0.0,0.0,45,0.00,,,0.00,WeatherCatV1.12B45,2013-02-28 05:45:00,
2013-02-27 21:50:00,35.4,16.2,30.20,SW,221,0.0,0.0,45,0.00,,,0.00,WeatherCatV1.12B45,2013-02-28 05:50:00,
2013-02-27 21:55:00,35.2,16.0,30.23,SW,221,0.0,0.0,45,0.00,,,0.00,WeatherCatV1.12B45,2013-02-28 05:55:00,
2013-02-27 22:00:00,35.2,16.6,30.23,SW,221,0.0,0.0,46,0.00,,,0.00,WeatherCatV1.12B45,2013-02-28 06:00:00,
2013-02-27 22:05:00,35.2,16.6,30.23,SW,221,0.0,0.0,46,0.00,,,0.00,WeatherCatV1.12B45,2013-02-28 06:05:00,
2013-02-27 22:10:00,35.4,16.7,30.23,SW,221,0.0,0.0,46,0.00,,,0.00,WeatherCatV1.12B45,2013-02-28 06:10:00,
2013-02-27 22:15:00,35.4,16.2,30.23,SW,221,0.0,0.0,45,0.00,,,0.00,WeatherCatV1.12B45,2013-02-28 06:15:00,
2013-02-27 22:20:00,35.4,16.2,30.23,SW,221,0.0,0.0,45,0.00,,,0.00,WeatherCatV1.12B45,2013-02-28 06:20:00,
2013-02-27 22:25:00,35.2,16.6,30.23,SW,221,0.0,0.0,46,0.00,,,0.00,WeatherCatV1.12B45,2013-02-28 06:25:00,
2013-02-27 22:30:00,34.9,16.7,30.23,SW,221,0.0,0.0,47,0.00,,,0.00,WeatherCatV1.12B45,2013-02-28 06:30:00,
2013-02-27 22:35:00,34.7,16.6,30.23,SW,221,0.0,0.0,47,0.00,,,0.00,WeatherCatV1.12B45,2013-02-28 06:35:00,
2013-02-27 22:40:00,34.3,16.2,30.23,SW,221,0.0,0.0,47,0.00,,,0.00,WeatherCatV1.12B45,2013-02-28 06:40:00,
2013-02-27 22:45:00,34.0,16.4,30.23,SW,221,0.0,0.0,48,0.00,,,0.00,WeatherCatV1.12B45,2013-02-28 06:45:00,
2013-02-27 22:50:00,33.8,16.7,30.23,SW,221,0.0,0.0,49,0.00,,,0.00,WeatherCatV1.12B45,2013-02-28 06:50:00,
2013-02-27 22:55:00,33.6,17.4,30.23,SW,221,0.0,0.0,51,0.00,,,0.00,WeatherCatV1.12B45,2013-02-28 06:55:00,
2013-02-27 23:00:00,33.3,17.1,30.23,SW,221,0.0,0.0,51,0.00,,,0.00,WeatherCatV1.12B45,2013-02-28 07:00:00,
2013-02-27 23:05:00,32.9,17.2,30.23,SW,221,0.0,0.0,52,0.00,,,0.00,WeatherCatV1.12B45,2013-02-28 07:05:00,
2013-02-27 23:10:00,32.7,17.1,30.23,SW,221,0.0,0.0,52,0.00,,,0.00,WeatherCatV1.12B45,2013-02-28 07:10:00,
2013-02-27 23:15:00,32.4,17.2,30.23,SW,221,0.0,0.0,53,0.00,,,0.00,WeatherCatV1.12B45,2013-02-28 07:15:00,
2013-02-27 23:20:00,32.2,17.0,30.23,SW,221,0.0,0.0,53,0.00,,,0.00,WeatherCatV1.12B45,2013-02-28 07:20:00,
2013-02-27 23:25:00,32.2,17.4,30.23,SW,221,0.0,0.0,54,0.00,,,0.00,WeatherCatV1.12B45,2013-02-28 07:25:00,
2013-02-27 23:30:00,32.2,17.4,30.23,SW,221,0.0,0.0,54,0.00,,,0.00,WeatherCatV1.12B45,2013-02-28 07:30:00,
2013-02-27 23:35:00,32.2,17.4,30.23,South,180,3.6,3.6,54,0.00,,,0.00,WeatherCatV1.12B45,2013-02-28 07:35:00,
2013-02-27 23:40:00,32.2,17.4,30.20,South,180,0.0,0.0,54,0.00,,,0.00,WeatherCatV1.12B45,2013-02-28 07:40:00,
2013-02-27 23:45:00,32.2,17.4,30.20,South,180,0.0,0.0,54,0.00,,,0.00,WeatherCatV1.12B45,2013-02-28 07:45:00,
2013-02-27 23:50:00,32.5,17.8,30.20,South,180,0.0,0.0,54,0.00,,,0.00,WeatherCatV1.12B45,2013-02-28 07:50:00,
2013-02-27 23:55:00,32.7,17.5,30.23,South,180,0.0,0.0,53,0.00,,,0.00,WeatherCatV1.12B45,2013-02-28 07:55:00,